Regional Weather Roundup
Issued by NWS Northern Indiana

Home | Current Version | Previous Version | Text Only | Print | Product List | Glossary Off
Versions: 1 2 3 4 5 6 7 8 9 10 11 12 13 14 15 16 17 18 19 20 21 22 23 24 25 26 27 28 29 30 31 32 33 34 35 36 37 38 39 40 41 42 43 44 45 46 47 48 49 50

000
ASUS43 KIWX 251400
RWRIWX

KIWX WEATHER ROUNDUP
NATIONAL WEATHER SERVICE NORTHERN INDIANA
1000 AM EDT SAT OCT 25 2014

NOTE: "FAIR" INDICATES FEW OR NO CLOUDS BELOW 12,000 FEET WITH NO
SIGNIFICANT WEATHER AND/OR OBSTRUCTIONS TO VISIBILITY.

* THESE STATIONS ARE NOT UNDER NWS QUALITY CONTROL. THEY ALSO MAY NOT
  REPORT WEATHER SUCH AS PRECIPITATION OR FOG.

INZ001>027-251500-
NORTHERN INDIANA

CITY           SKY/WX    TMP DP  RH WIND       PRES   REMARKS
GARY*          MOSUNNY   59  55  88 SW8       29.93S FOG
VALPARAISO     CLOUDY    54  54 100 W9        29.94S FOG
SOUTH BEND     CLOUDY    55  53  93 W8        29.93R FOG
ELKHART*       CLOUDY    55  54  94 W8        29.92R FOG
GOSHEN         MOSUNNY   55  52  89 W8        29.91S FOG
ANGOLA*        CLOUDY    55  48  76 W12       29.89S
FORT WAYNE     PTSUNNY   57  52  83 SW9       29.93S

$$
INZ028>050-251500-
CENTRAL INDIANA

CITY           SKY/WX    TMP DP  RH WIND       PRES   REMARKS
LAFAYETTE      SUNNY     54  52  93 W5        29.97R
KOKOMO*        MOSUNNY   57  52  82 W10       29.96S
MUNCIE*        PTSUNNY   58  52  80 W9        29.96R
INDIANAPOLIS   MOSUNNY   57  52  83 SW8       29.97S

$$
MIZ043>046-050>051-056>058-064>065-071>073-077>080-251500-
SOUTHWEST LOWER MICHIGAN

CITY           SKY/WX    TMP DP  RH WIND       PRES   REMARKS
BATTLE CREEK   CLOUDY    57  52  83 W15       29.87S HAZE
BENTON HARBOR  CLOUDY    56  54  93 SW10      29.89S FOG
COLDWATER*     CLOUDY    57  55  92 W10G17    29.88S FOG
HILLSDALE*     CLOUDY    57  56  95 W10G17    29.86F FOG
HOLLAND        CLOUDY    58  54  86 W13       29.88R FOG
GRAND RAPIDS   CLOUDY    56  53  90 W10       29.86R FOG
KALAMAZOO      CLOUDY    57  53  86 W14G21    29.88S FOG
STURGIS*       CLOUDY    55  54  94 W12       29.88F FOG
THREE RIVERS*  CLOUDY    57  54  89 W14       29.89S FOG

$$
OHZ001>008-015>018-024>025-251500-
NORTHWEST OHIO

CITY           SKY/WX    TMP DP  RH WIND       PRES   REMARKS
DEFIANCE       SUNNY     58  52  80 SW9       29.90R
FINDLAY        MOSUNNY   59  50  72 SW10      29.89F HAZE
TOLEDO EXPRESS SUNNY     57  52  83 W12       29.87F HAZE
TOLEDO METCALF SUNNY     57  51  80 W14       29.88F
LIMA           CLOUDY    59  51  75 SW16      29.92F

$$
AND FOR LAKE MICHIGAN COASTAL AND OPEN LAKE BUOY OBSERVATIONS

STATION/POSITION TEMP    WIND        PRES    VSBY  WAVE
                 AIR SEA DIR/SP/G                  HT/PER
                 (F)     (DEG/KT/KT) (MB)    (MI)  (FT/S)
CALUMET HARBOR    58     230/  4/  8 1011.9R
MICHIGAN CITY     56     230/ 15/ 16   N/A
SAINT JOSEPH      56                 1013.5R
SOUTH LAKE BUOY   55 54  250/ 12/ 16 1011.5R         2/ 3

$$
&&



USA.gov is the U.S. government's official web portal to all federal, state and local government web resources and services.